Regional Weather Roundup
Issued by NWS

Home | Current Version | Previous Version | Graphics & Text | Print | Product List | Glossary On
Versions: 1 2 3 4 5 6 7 8 9 10 11 12 13 14 15 16 17 18 19 20 21 22 23 24 25 26 27 28 29 30 31 32 33 34 35 36 37 38 39 40 41 42 43 44 45 46 47 48 49
000
ASUS43 KDMX 221407
RWRIA

WEATHER ROUNDUP FOR IOWA
NATIONAL WEATHER SERVICE DES MOINES IA
900 AM CDT MON SEP 22 2014

NOTE: "FAIR" INDICATES FEW OR NO CLOUDS BELOW 12,000 FEET WITH NO
SIGNIFICANT WEATHER AND/OR OBSTRUCTIONS TO VISIBILITY.

* - THESE STATIONS ARE NOT NWS STATIONS...THUS NOT UNDER NWS
QUALITY CONTROL.  THEY ALSO DO NOT REPORT WEATHER SUCH
AS PRECIPITATION OR FOG.

IAZ001>003-012>014-020>022-031>034-043>046-221500-
   NORTHWEST IOWA

CITY           SKY/WX    TMP DP  RH WIND       PRES   REMARKS
CARROLL *      SUNNY     54  52  94 CALM      30.31F
CHEROKEE *     SUNNY     48  48 100 CALM      30.31S
DENISON *      SUNNY     52  52 100 CALM      30.30S
LE MARS *      SUNNY     52  48  87 CALM      30.30F
ORANGE CITY *  SUNNY     54  46  76 S3        30.30S
SHELDON *      SUNNY     54  52  94 S3        30.29S
SIOUX CITY     SUNNY     52  49  89 E3        30.30S
SPENCER        SUNNY     51  48  89 CALM      30.31S
STORM LAKE *   SUNNY     52  52 100 SW3       30.31S
$$

IAZ055>058-069>071-079>083-090>094-221500-
   SOUTHWEST IOWA

CITY           SKY/WX    TMP DP  RH WIND       PRES   REMARKS
ATLANTIC *     SUNNY     50  50 100 CALM      30.31F
AUDUBON *      SUNNY     50  46  87 CALM      30.32F
CLARINDA *     SUNNY     52  52 100 CALM      30.34S
COUNCIL BLFS * SUNNY     57  54  88 S5        30.30S
CRESTON *      SUNNY     55  52  88 CALM      30.33S
HARLAN  *      SUNNY     50  50 100 CALM      30.35S
LAMONI         SUNNY     55  50  83 N5        30.33R
RED OAK *      SUNNY     54  50  87 CALM      30.32S
SHENANDOAH *   SUNNY     52  50  93 CALM      30.33S
$$

IAZ047>049-059>061-072>074-084-221500-
   CENTRAL IOWA

CITY           SKY/WX    TMP DP  RH WIND       PRES   REMARKS
AMES           SUNNY     54  50  86 NW3       30.32R
ANKENY *       SUNNY     55  52  88 NW3       30.32S
CHARITON *     SUNNY     54  50  87 NW5       30.33R
DES MOINES     SUNNY     55  49  80 CALM      30.32R
GRINNELL*      SUNNY     55  50  82 CALM      30.33R
KNOXVILLE *    SUNNY     52  50  93 CALM      30.31R
MARSHALLTOWN   SUNNY     50  49  96 CALM      30.32R
PELLA *        SUNNY     54  52  94 CALM      30.34R
PERRY *          N/A     54  52  94 CALM      30.32S
$$

IAZ004>006-015-016-023>025-035-036-221500-
   NORTH CENTRAL IOWA

CITY           SKY/WX    TMP DP  RH WIND       PRES   REMARKS
ALGONA *       SUNNY     54  52  94 SW3       30.31S
CLARION *        N/A     52  50  93 CALM      30.32R
ESTHERVILLE    SUNNY     53  50  89 W3        30.30S
FORT DODGE *   SUNNY     50  46  87 CALM      30.32S
MASON CITY     SUNNY     52  50  93 W9        30.32R
FOREST CITY *  SUNNY     52  52 100 CALM      30.31S
IOWA FALLS *     N/A     54  52  94 W3        30.32S
$$

IAZ007>011-017>019-026>030-037>042-050>054-066-221500-
   NORTHEAST IOWA

CITY           SKY/WX    TMP DP  RH WIND       PRES   REMARKS
CEDAR RAPIDS   SUNNY     51  50  96 CALM      30.31R
CHARLES CITY * SUNNY     52  50  93 CALM      30.30S
CLINTON *      SUNNY     52  46  82 CALM      30.34R
DECORAH *      SUNNY     52  48  87 CALM      30.28R
DUBUQUE        SUNNY     50  46  86 SW5       30.31R
MONTICELLO *   SUNNY     48  48 100 CALM      30.31R
OELWEIN *      SUNNY     52  50  93 CALM      30.31R
WATERLOO       SUNNY     52  50  93 CALM      30.30R
$$

IAZ064-065-067-068-078-221500-
   EAST CENTRAL IOWA

CITY           SKY/WX    TMP DP  RH WIND       PRES   REMARKS
DAVENPORT      SUNNY     53  44  71 NE3       30.32R
IOWA CITY      SUNNY     53  51  93 CALM      30.32S
MT. PLEASANT * SUNNY     55  48  76 CALM      30.33R
MUSCATINE *    SUNNY     52  48  87 CALM      30.33R
QUAD CITIES    SUNNY     53  45  74 CALM      30.31R
$$

IAZ062-063-075>077-085>089-095>099-221500-
   SOUTHEAST IOWA

CITY           SKY/WX    TMP DP  RH WIND       PRES   REMARKS
BURLINGTON     SUNNY     56  48  74 NE6       30.31R
FAIRFIELD *    SUNNY     54  48  82 CALM      30.33R
FORT MADISON * SUNNY     55  52  88 CALM      30.33R
KEOKUK *       SUNNY     55  50  82 CALM      30.32R
OSKALOOSA *      N/A     54  50  87 CALM      30.33R
CENTERVILLE *  SUNNY     54  54 100 CALM      30.34R
OTTUMWA        SUNNY     54  48  80 NE3       30.31R
WASHINGTON *   SUNNY     54  50  87 CALM      30.33R
$$

ABBREVIATIONS USED IN REMARKS
   TC - TEMPERATURES IN CELSIUS
  WCI - WIND CHILL INDEX
   HX - HEAT INDEX
  VSB - VISIBILITY
$$



USA.gov is the U.S. government's official web portal to all federal, state and local government web resources and services.